GSAT0215 (GALILEO 19) (43055 NORAD) Tracking and Keplerian Element Data

This shows tracking and keplerian element data for the satellite.

Feedback or suggestion? Click here.




ElementValue
Catalog43055
NameGSAT0215 (GALILEO 19)
Epoch Orbit1595
Epoch Day187.8958042
Epoch Year2020
RAAN281.2929
Inclination56.2532
Eccentricity0.0002639
Argument of Perigee242.0847
Mean Anonmoly117.9398
Mean Motion1.7047452
Decay Rate-3.2E-07
L11 43055U 17079A 20187.89580420 -.00000032 00000-0 00000+0 0 9990
L22 43055 56.2532 281.2929 0002639 242.0847 117.9398 1.70474520 15950

Live tracking and technical data element details for GSAT0215 (GALILEO 19) (NORAD 43055). GSAT0215 (GALILEO 19) can be tracked NOW for your location showing map with azimuth and elevation plus other details from your city location.

Track the satellite on the map from your city or location and see movement details for azimuth, elevation, latitude, longitude, range, height, and movement on the map or in text.







IsCatalogInMostPopularTable: catalog: 43055, numindb: 498
Update: records affected: 1



GetName: 43055 GSAT0215 (GALILEO 19)

Hit Count: updated at: Wed, 08 Jul 2020 22:07:31 GMT